Location: Pel�-Koumbol�
(14.9505°N, 3.0798°W)
Time: 07:28:32
(UTC+00:00)

SMAP - Pass Details

Date: 17 February 2020
Orbit: 681 x 683 km, 98.1° (Epoch: 06 April)

Event Time Altitude Azimuth Distance (km) Brightness Sun altitude
Rises 06:03:06 0° 16° (NNE) 3,036 6.5 -8.6°
Reaches altitude 10° 06:05:21 10° 19° (NNE) 2,120 5.7 -8.1°
Maximum altitude 06:09:57 65° 102° (ESE) 746 3.6 -7.0°
Drops below altitude 10° 06:14:32 10° 183° (S) 2,116 5.7 -5.9°
Sets 06:16:47 0° 186° (S) 3,030 6.5 -5.4°
